TimePST,TemperatureF,Dew PointF,Humidity,Sea Level PressureIn,VisibilityMPH,Wind Direction,Wind SpeedMPH,Gust SpeedMPH,PrecipitationIn,Events,Conditions,WindDirDegrees,DateUTC
12:58 AM,43.3,43.3,100,29.76,10.0,South,3.5,-,N/A,,Scattered Clouds,170,2012-12-14 08:58:00
1:58 AM,41.9,41.9,100,29.76,10.0,Calm,Calm,-,N/A,,Scattered Clouds,0,2012-12-14 09:58:00
2:58 AM,40.5,40.5,100,29.78,10.0,Calm,Calm,-,N/A,,Partly Cloudy,0,2012-12-14 10:58:00
3:58 AM,38.1,38.1,100,29.78,10.0,NE,1.2,-,N/A,,Scattered Clouds,40,2012-12-14 11:58:00
4:58 AM,40.5,40.5,100,29.80,10.0,Calm,Calm,-,N/A,,Mostly Cloudy,0,2012-12-14 12:58:00
5:58 AM,40.1,40.1,100,29.82,10.0,Calm,Calm,-,N/A,,Mostly Cloudy,0,2012-12-14 13:58:00
6:58 AM,41.0,41.0,100,29.85,10.0,SE,2.3,-,N/A,,Mostly Cloudy,140,2012-12-14 14:58:00
7:58 AM,42.6,42.6,100,29.87,10.0,East,5.8,-,N/A,,Mostly Cloudy,100,2012-12-14 15:58:00
8:58 AM,44.8,44.8,100,29.91,10.0,SE,5.8,-,N/A,,Mostly Cloudy,140,2012-12-14 16:58:00
9:58 AM,49.6,49.3,99,29.91,10.0,ESE,8.1,-,N/A,,Mostly Cloudy,120,2012-12-14 17:58:00
10:58 AM,50.7,46.9,87,29.91,10.0,ESE,12.7,-,N/A,,Mostly Cloudy,110,2012-12-14 18:58:00
11:58 AM,52.9,42.1,67,29.89,10.0,SSE,9.2,-,N/A,,Mostly Cloudy,160,2012-12-14 19:58:00
12:58 PM,53.2,37.0,54,29.88,10.0,SW,12.7,-,N/A,,Mostly Cloudy,220,2012-12-14 20:58:00
1:58 PM,53.1,36.7,54,29.88,10.0,SSW,10.4,-,N/A,,Overcast,210,2012-12-14 21:58:00
2:58 PM,51.1,36.1,57,29.91,10.0,SSW,6.9,-,N/A,,Mostly Cloudy,200,2012-12-14 22:58:00
3:58 PM,50.2,34.2,54,29.93,10.0,WSW,5.8,-,N/A,,Overcast,240,2012-12-14 23:58:00
4:58 PM,49.3,36.3,61,29.94,10.0,SW,4.6,-,N/A,,Overcast,230,2012-12-15 00:58:00
5:58 PM,46.4,38.8,75,29.96,10.0,South,6.9,-,N/A,,Overcast,170,2012-12-15 01:58:00
6:23 PM,46.4,41.0,81,29.95,10.0,South,5.8,-,N/A,Rain,Light Rain,170,2012-12-15 02:23:00
6:58 PM,45.7,40.8,83,29.96,10.0,ESE,3.5,-,0.00,Rain,Light Rain,120,2012-12-15 02:58:00
7:30 PM,46.4,39.2,76,29.96,10.0,ESE,2.3,-,N/A,,Overcast,110,2012-12-15 03:30:00
7:58 PM,45.9,39.2,78,29.98,10.0,SSE,3.5,-,0.00,,Mostly Cloudy,150,2012-12-15 03:58:00
8:58 PM,45.5,42.6,90,29.99,10.0,SSE,3.5,-,N/A,,Mostly Cloudy,150,2012-12-15 04:58:00
9:58 PM,45.0,44.1,97,29.99,10.0,SE,4.6,-,N/A,,Overcast,130,2012-12-15 05:58:00
10:11 PM,44.6,42.8,93,29.98,10.0,SE,4.6,-,N/A,,Light Drizzle,130,2012-12-15 06:11:00
10:23 PM,44.6,42.8,93,29.98,10.0,ESE,3.5,-,N/A,Rain,Light Rain,120,2012-12-15 06:23:00
10:58 PM,44.2,43.9,99,29.99,10.0,East,4.6,-,0.01,Rain,Light Rain,100,2012-12-15 06:58:00
11:18 PM,42.8,42.8,100,29.99,10.0,East,4.6,-,N/A,Rain,Light Rain,80,2012-12-15 07:18:00
11:43 PM,42.8,42.8,100,29.99,10.0,NE,4.6,-,N/A,Rain,Light Rain,40,2012-12-15 07:43:00
11:58 PM,43.0,42.6,99,29.99,10.0,NE,4.6,-,0.01,Rain,Light Rain,50,2012-12-15 07:58:00